Regional Weather Roundup
Issued by NWS Green Bay, WI

Home | Current Version | Previous Version | Graphics & Text | Print | Product List | Glossary Off
Versions: 1 2 3 4 5 6 7 8 9 10 11 12 13 14 15 16 17 18 19 20 21 22 23 24 25 26 27 28 29 30 31 32 33 34 35 36 37 38 39 40 41 42 43 44 45 46 47 48 49 50

000
ASUS43 KGRB 220700
RWRGRB

NORTH-CENTRAL AND NORTHEAST WISCONSIN REGIONAL WEATHER ROUNDUP
NATIONAL WEATHER SERVICE GREEN BAY WI
100 AM CST THU FEB 22 2018

WIZ005-009-010>012-018-019-220800-
NORTH CENTRAL WISCONSIN

CITY           SKY/WX    TMP DP  RH WIND       PRES   REMARKS
IRONWOOD       FAIR       2  -1  88 CALM      30.62F
MANITOWISH WTR NOT AVBL
ARBOR VITAE    NOT AVBL
EAGLE RIVER    FAIR      -4  -9  81 CALM      30.60S
LAND O LAKES   FAIR      -9 -13  80 CALM      30.61F
RHINELANDER    FAIR       0  -3  87 CALM      30.60F
PHILLIPS       NOT AVBL
ANTIGO         NOT AVBL
TOMAHAWK       NOT AVBL
MERRILL        FAIR       0  -3  85 CALM      30.63F
$$

WIZ013-073-220800-
NORTHEAST WISCONSIN

CITY           SKY/WX    TMP DP  RH WIND       PRES   REMARKS
IRON MOUNTAIN  FAIR       4   0  83 N6        30.62F WCI  -7
MARINETTE      FAIR      16  10  77 NW6       30.67S WCI   7
$$

WIZ017-030-035>037-045-220800-
CENTRAL WISCONSIN

CITY           SKY/WX    TMP DP  RH WIND       PRES   REMARKS
MEDFORD        NOT AVBL
WAUSAU         FAIR       6   3  87 N3        30.61F
MOSINEE        NOT AVBL
MARSHFIELD     FAIR      11   4  73 NE6       30.59F WCI   1
WISC RAPIDS    FAIR      14   8  77 CALM      30.63F
STEVENS POINT  NOT AVBL
WAUPACA        NOT AVBL
SHAWANO        FAIR      17   8  67 CALM      30.65F
CLINTONVILLE   FAIR      17   7  66 N3        30.65F
WAUTOMA        FAIR      16  12  84 CALM      30.64F
$$

WIZ038-039-048-051-220800-
FOX VALLEY

CITY           SKY/WX    TMP DP  RH WIND       PRES   REMARKS
NWS GREEN BAY  FAIR      19  10  68 CALM      30.67R
APPLETON       NOT AVBL
OSHKOSH        FAIR      18  11  74 NE5       30.64S
FOND DU LAC    FAIR      21  12  68 NE7       30.64S
$$

WIZ022-050-052-220800-
EAST CENTRAL WISCONSIN

CITY           SKY/WX    TMP DP  RH WIND       PRES   REMARKS
EPHRAIM        NOT AVBL
WASHINGTON ISL NOT AVBL
STURGEON BAY   FAIR      17  12  80 NW3       30.67S
MANITOWOC      FAIR      21  14  74 N5        30.67S
SHEBOYGAN      FAIR      22  14  71 N7        30.64F
$$

LMZ563-521-522-541>543-220800-
LAKESHORE

STATION/POSITION TIME  TEMP    WIND        PRES    VSBY  WAVE
                       AIR SEA DIR/SP/G                  HT/PER
                 (UTC) (F)     (DEG/KT/KT) (MB)    (MI)  (FT/S)
KEWAUNEE LKSHORE 0630   21     310/  2/  5 1037.4F
NORTHPORT PIER   0602   20                 1037.9
MENOMINEE LKSHOR 0630   18     300/  5/  9 1037.7F
$$




USA.gov is the U.S. government's official web portal to all federal, state and local government web resources and services.